TimeCDT,TemperatureF,Dew PointF,Humidity,Sea Level PressureIn,VisibilityMPH,Wind Direction,Wind SpeedMPH,Gust SpeedMPH,PrecipitationIn,Events,Conditions,WindDirDegrees,DateUTC
12:53 AM,66.9,64.0,90,30.01,10.0,North,5.8,-,N/A,,Clear,10,2012-10-07 05:53:00
1:32 AM,66.2,64.4,94,30.01,10.0,NNE,5.8,-,N/A,,Mostly Cloudy,20,2012-10-07 06:32:00
1:53 AM,68.0,64.0,87,30.02,10.0,NNE,4.6,-,N/A,,Overcast,30,2012-10-07 06:53:00
2:05 AM,66.2,64.4,94,30.02,10.0,NNE,6.9,-,N/A,,Overcast,20,2012-10-07 07:05:00
2:33 AM,64.4,60.8,88,30.02,10.0,North,10.4,-,N/A,,Overcast,360,2012-10-07 07:33:00
2:45 AM,64.4,60.8,88,30.02,10.0,North,11.5,-,N/A,,Overcast,350,2012-10-07 07:45:00
2:53 AM,64.0,59.0,84,30.03,10.0,North,9.2,-,N/A,,Overcast,10,2012-10-07 07:53:00
3:53 AM,61.0,57.0,87,30.02,10.0,North,9.2,18.4,N/A,,Partly Cloudy,360,2012-10-07 08:53:00
4:19 AM,60.8,57.2,88,30.02,10.0,North,9.2,-,N/A,,Partly Cloudy,360,2012-10-07 09:19:00
4:53 AM,59.0,55.9,90,30.03,10.0,North,11.5,18.4,N/A,,Partly Cloudy,360,2012-10-07 09:53:00
5:53 AM,57.9,55.0,90,30.04,10.0,North,10.4,-,N/A,,Partly Cloudy,350,2012-10-07 10:53:00
6:53 AM,57.9,55.0,90,30.06,10.0,North,10.4,-,N/A,,Scattered Clouds,350,2012-10-07 11:53:00
7:02 AM,59.0,55.4,88,30.05,10.0,North,11.5,-,N/A,,Mostly Cloudy,350,2012-10-07 12:02:00
7:53 AM,60.1,55.9,86,30.08,10.0,North,11.5,-,N/A,,Overcast,350,2012-10-07 12:53:00
8:07 AM,60.8,55.4,82,30.08,10.0,North,10.4,20.7,N/A,,Overcast,350,2012-10-07 13:07:00
8:53 AM,62.1,57.0,84,30.09,10.0,North,10.4,19.6,N/A,,Overcast,360,2012-10-07 13:53:00
9:53 AM,64.0,57.0,78,30.10,10.0,North,12.7,-,N/A,,Overcast,10,2012-10-07 14:53:00
10:53 AM,66.0,57.0,73,30.10,10.0,North,16.1,-,N/A,,Overcast,350,2012-10-07 15:53:00
11:08 AM,66.2,57.2,73,30.09,10.0,North,15.0,-,N/A,,Scattered Clouds,360,2012-10-07 16:08:00
11:54 AM,71.1,59.0,66,30.08,-9999.0,NE,11.5,-,N/A,,Unknown,40,2012-10-07 16:54:00
12:53 PM,73.9,60.1,62,30.06,10.0,North,10.4,-,N/A,,Clear,360,2012-10-07 17:53:00
1:53 PM,75.0,60.1,60,30.04,10.0,North,11.5,-,N/A,,Clear,360,2012-10-07 18:53:00
2:53 PM,73.9,59.0,59,30.01,10.0,NNW,13.8,19.6,N/A,,Clear,340,2012-10-07 19:53:00
3:53 PM,73.0,59.0,61,30.02,10.0,North,13.8,-,N/A,,Clear,360,2012-10-07 20:53:00
4:53 PM,72.0,57.0,59,30.01,10.0,North,11.5,-,N/A,,Clear,10,2012-10-07 21:53:00
5:53 PM,70.0,57.0,63,30.02,10.0,North,9.2,-,N/A,,Clear,10,2012-10-07 22:53:00
6:53 PM,64.9,57.0,75,30.04,10.0,North,8.1,-,N/A,,Clear,360,2012-10-07 23:53:00
7:53 PM,63.0,55.9,78,30.07,10.0,North,8.1,-,N/A,,Clear,10,2012-10-08 00:53:00
8:53 PM,61.0,55.0,81,30.09,10.0,North,8.1,-,N/A,,Clear,360,2012-10-08 01:53:00
9:53 PM,60.1,53.1,78,30.11,10.0,North,10.4,-,N/A,,Clear,10,2012-10-08 02:53:00
10:53 PM,57.9,52.0,81,30.11,10.0,North,8.1,-,N/A,,Clear,10,2012-10-08 03:53:00
11:53 PM,57.0,51.1,81,30.09,10.0,North,9.2,-,N/A,,Clear,360,2012-10-08 04:53:00